DW7756 Weather Reports


time (UTC)temp
C
wind
direction
speed
KPH
gust
KPH
rain 1hr
cm
rain 24hr
cm
rain mn
cm
humidity
%
barometer
mb
20260831110038 24 350 0.0 3.2 0.00 0.41 0.00 91 1016.2
20260831104550 24 0 0.0 1.6 0.00 0.41 0.00 91 1016.1
20260831103038 24 0 0.0 0.0 0.00 0.41 0.00 91 1016.0
20260831101544 24 0 0.0 0.0 0.00 0.41 0.00 91 1015.8
20260831100037 24 0 0.0 0.0 0.00 0.41 0.00 91 1015.8
20260831094543 24 0 0.0 3.2 0.00 0.41 0.00 91 1015.7
20260831093101 24 350 0.0 3.2 0.00 0.41 0.00 91 1015.9
20260831091546 24 350 1.6 3.2 0.00 0.41 0.00 91 1015.8
20260831090036 24 350 1.6 3.2 0.00 0.41 0.00 91 1015.7
20260831084627 24 350 0.0 3.2 0.00 0.41 0.00 90 1015.8
20260831083046 24 350 0.0 3.2 0.00 0.41 0.00 90 1015.9
20260831081539 24 350 1.6 3.2 0.00 0.41 0.00 90 1016.0
20260831080050 24 0 0.0 0.0 0.00 0.41 0.00 90 1016.1
20260831074547 25 0 0.0 3.2 0.00 0.41 0.00 90 1016.1
20260831073042 25 318 0.0 3.2 0.00 0.41 0.00 90 1016.3
20260831071545 25 246 0.0 3.2 0.00 0.41 0.00 90 1016.3
20260831070038 25 191 0.0 6.4 0.00 0.41 0.00 90 1016.6
20260831064545 25 334 0.0 3.2 0.00 0.41 0.00 90 1016.4
20260831063059 25 334 1.6 4.8 0.00 0.41 0.00 90 1016.7
20260831061537 25 268 1.6 6.4 0.00 0.41 0.00 90 1016.6
20260831060040 25 0 0.0 0.0 0.00 0.41 0.00 89 1016.9
20260831054536 25 0 0.0 0.0 0.00 0.41 0.00 89 1016.8
20260831053052 25 0 0.0 0.0 0.00 0.41 0.00 89 1016.8
20260831051540 25 0 0.0 0.0 0.00 0.41 0.00 89 1017.1
20260831050039 25 0 0.0 0.0 0.00 0.41 0.00 89 1017.2
20260831044539 25 0 0.0 0.0 0.00 0.41 0.00 89 1017.2
20260831043043 25 0 0.0 0.0 0.00 0.41 0.00 88 1017.3
20260831041543 25 0 0.0 0.0 0.00 0.41 0.00 88 1017.4
20260831040042 25 0 0.0 0.0 0.00 0.41 0.00 88 1017.4
20260831034539 25 0 0.0 0.0 0.00 0.41 0.41 88 1017.5
20260831033041 25 0 0.0 0.0 0.00 0.41 0.41 88 1017.5
20260831031534 25 0 0.0 0.0 0.00 0.41 0.41 88 1017.5
20260831030048 25 0 0.0 0.0 0.00 0.41 0.41 87 1017.7
20260831024546 25 0 0.0 0.0 0.00 0.43 0.41 87 1017.7
20260831023040 25 0 0.0 0.0 0.00 0.43 0.41 87 1017.6
20260831021536 25 0 0.0 1.6 0.00 0.43 0.41 86 1017.6
20260831020039 25 0 0.0 0.0 0.00 0.43 0.41 86 1017.7
20260831014540 25 0 0.0 0.0 0.00 0.43 0.41 86 1017.3
20260831013035 26 0 0.0 0.0 0.00 0.43 0.41 85 1017.3
20260831011542 26 0 0.0 0.0 0.00 0.43 0.41 85 1017.4
20260831010036 26 0 0.0 0.0 0.00 0.43 0.41 84 1017.4
20260831004542 26 0 0.0 0.0 0.00 0.43 0.41 84 1017.4
20260831003036 26 0 0.0 0.0 0.00 0.43 0.41 83 1017.4
20260831001540 27 0 0.0 0.0 0.00 0.43 0.41 82 1017.4
20260831000037 27 0 0.0 0.0 0.00 0.43 0.41 81 1017.3
20260830234543 27 0 0.0 3.2 0.00 0.43 0.41 81 1017.2
20260830233038 27 0 0.0 0.0 0.00 0.43 0.41 80 1017.1
20260830231537 27 11 0.0 3.2 0.00 0.43 0.41 80 1016.8
20260830230036 27 0 0.0 3.2 0.00 0.43 0.41 79 1017.0
20260830224539 27 0 1.6 4.8 0.00 2.54 0.41 79 1016.9
20260830223037 28 0 0.0 0.0 0.00 2.54 0.41 79 1016.9
20260830221537 28 0 0.0 3.2 0.00 2.54 0.41 79 1016.8
20260830220041 28 0 0.0 1.6 0.00 2.54 0.41 80 1016.5
20260830214535 28 122 0.0 3.2 0.00 2.54 0.41 80 1016.5
20260830213033 27 122 0.0 3.2 0.00 2.54 0.41 79 1016.4
20260830211548 27 91 1.6 4.8 0.00 2.54 0.41 80 1016.3
20260830210039 27 0 1.6 8.0 0.00 2.54 0.41 80 1016.4
20260830204537 27 100 1.6 4.8 0.00 2.54 0.41 81 1016.6
20260830203034 27 98 0.0 3.2 0.00 2.54 0.41 81 1016.7
20260830201540 27 0 0.0 1.6 0.00 2.54 0.41 82 1016.8
20260830200039 27 0 0.0 3.2 0.00 2.54 0.41 84 1017.0
20260830194535 27 0 0.0 0.0 0.00 2.54 0.41 85 1017.2
20260830193037 26 90 0.0 3.2 0.00 2.54 0.41 86 1017.3
20260830191541 27 0 0.0 3.2 0.00 2.54 0.41 87 1017.4
20260830190039 26 0 0.0 4.8 0.05 2.54 0.41 87 1017.7
20260830184536 26 0 0.0 3.2 0.41 2.54 0.41 86 1017.9
20260830183044 26 88 0.0 6.4 0.41 2.54 0.41 86 1017.9
20260830181539 26 137 1.6 8.0 0.41 2.54 0.41 84 1018.2
20260830180037 26 80 1.6 8.0 0.33 2.46 0.33 81 1018.2
20260830174536 27 221 4.8 17.7 0.00 2.13 0.00 81 1018.5
20260830173036 27 90 3.2 12.9 0.00 2.13 0.00 77 1018.5
20260830171541 28 111 4.8 17.7 0.00 2.13 0.00 73 1018.4
20260830170036 31 90 6.4 17.7 0.00 2.13 0.00 66 1018.5
20260830164545 32 101 3.2 9.7 0.00 2.13 0.00 67 1018.5
20260830163047 32 40 3.2 11.3 0.00 2.13 0.00 68 1018.4
20260830161535 32 0 1.6 9.7 0.00 2.13 0.00 67 1018.5
20260830160055 32 132 1.6 4.8 0.00 2.13 0.00 68 1018.3
20260830154535 31 137 1.6 11.3 0.00 2.13 0.00 66 1018.2
20260830153039 31 5 1.6 6.4 0.00 2.13 0.00 67 1018.3
20260830151539 31 59 1.6 4.8 0.00 2.13 0.00 69 1018.5
20260830150040 30 126 1.6 6.4 0.00 2.13 0.00 72 1018.6
20260830144538 29 83 1.6 4.8 0.00 2.13 0.00 79 1018.8
20260830143040 28 5 0.0 4.8 0.00 2.13 0.00 87 1018.7
20260830141536 27 0 0.0 3.2 0.00 2.13 0.00 89 1018.9
20260830140048 27 0 0.0 3.2 0.00 2.13 0.00 91 1019.0
20260830134550 26 0 3.2 8.0 0.00 2.13 0.00 92 1018.9
20260830133041 26 38 1.6 6.4 0.00 2.13 0.00 92 1018.9
20260830131543 25 28 1.6 4.8 0.00 2.13 0.00 92 1018.8
20260830130055 25 329 1.6 3.2 0.00 2.13 0.00 92 1018.8
20260830124542 25 0 0.0 0.0 0.00 2.13 0.00 92 1018.6
20260830123044 25 0 0.0 0.0 0.00 2.13 0.00 92 1018.3
20260830121549 24 349 1.6 3.2 0.00 2.13 0.00 92 1018.2
20260830120039 23 317 0.0 3.2 0.00 2.13 0.00 92 1018.1
20260830114534 23 0 0.0 3.2 0.00 2.16 0.00 92 1017.8
20260830113036 23 319 0.0 3.2 0.00 2.16 0.00 92 1017.7
20260830111543 23 0 0.0 0.0 0.00 2.16 0.00 92 1017.6